Regional Weather Roundup
Issued by NWS State College, PA

Home | Current Version | Previous Version | Graphics & Text | Print | Product List | Glossary On
Versions: 1 2 3 4 5 6 7 8 9 10 11 12 13 14 15 16 17 18 19 20 21 22 23 24 25 26 27 28 29 30 31 32 33 34 35 36 37 38 39 40 41 42 43 44 45 46 47 48 49 50
000
ASUS41 KCTP 232103
RWRCTP

REGIONAL WEATHER ROUNDUP
NATIONAL WEATHER SERVICE STATE COLLEGE PA
500 PM EDT MON OCT 23 2017

Note: "fair" indicates few or no clouds below 12,000 feet with no
significant weather and/or obstructions to visibility.

* = STATION THAT DOES NOT REPORT PRECIPITATION /E.G. RAIN...SNOW...ETC/
    THUNDER OR FOG.

PAZ002>004-007>009-013>016-020>023-029>032-232200-
WESTERN PENNSYLVANIA

CITY           SKY/WX    TMP DP  RH WIND       PRES   REMARKS
ERIE           LGT RAIN  64  60  87 SE14      29.74F
MEADVILLE      LGT RAIN  61  60  97 SE10G17   29.78F
FRANKLIN*      LGT RAIN  60  58  92 SE18G32   29.82F
NEW CASTLE     RAIN      62  61  96 SE9G22    29.75F
BEAVER COUNTY  NOT AVBL
BUTLER*        RAIN      61  59  93 E14       29.79F
PITTSBURGH INT LGT RAIN  62  60  93 SE22G28   29.76F
PITTSBURGH     LGT RAIN  61  57  87 SE10G23   29.79F FOG
INDIANA*       CLOUDY    63  59  88 VRB7      29.91F FOG
LATROBE        RAIN      63  59  88 SW14      29.81F
WASHINGTON CO* LGT RAIN  61  59  93 SE10G24   29.77F
$$

PAZ004>006-010>012-017>019-024>028-033>037-041-042-045-046-049>053-232200-
CENTRAL PENNSYLVANIA

CITY           SKY/WX    TMP DP  RH WIND       PRES   REMARKS
BRADFORD       CLOUDY    63  52  67 S17G31    29.91F
DUBOIS         CLOUDY    63  51  65 SE12G23   29.89F
CLEARFIELD     CLOUDY    65  55  70 VRB5      29.93F
JOHNSTOWN      LGT RAIN  60  56  86 SE14G24   29.91F
ALTOONA        CLOUDY    68  57  68 SE16G26   29.94F
STATE COLLEGE  CLOUDY    64  57  77 SE8G17    29.96F
WILLIAMSPORT   CLOUDY    71  60  68 E13       29.97F
SELINSGROVE    CLOUDY    70  61  73 S12       30.00F
FT INDIANTOWN  CLOUDY    71  63  74 SE8       30.01F
CAPITAL CITY   CLOUDY    73  59  61 E8G17     29.99F
HARRISBURG     CLOUDY    71  63  75 SE10      29.99F
YORK           CLOUDY    71  61  70 SE10      29.99F
$$

PAZ038>040-043-044-047-048-054-055-060>062-067>071-232200-
EASTERN PENNSYLVANIA

CITY           SKY/WX    TMP DP  RH WIND       PRES   REMARKS
SCRANTON       CLOUDY    71  60  68 VRB3      30.04F
MOUNT POCONO   CLOUDY    63  61  93 SE9       30.10F
ALLENTOWN      CLOUDY    73  61  65 SE12      30.06F
QUAKERTOWN*    CLOUDY    72  63  73 SE9       30.08F
READING        CLOUDY    73  63  70 S16G22    30.04F
LANCASTER      CLOUDY    72  65  78 SE10      30.02F
COATESVILLE    CLOUDY    70  64  83 SE10G21   30.07F
POTTSTOWN      CLOUDY    72  63  73 SE7G17    30.08F
BLUE BELL      CLOUDY    70  63  78 SE8G18    30.09F
DOYLESTOWN     PTSUNNY   71  62  73 VRB7G16   30.08F
WILLOW GROVE   NOT AVBL
NORTH PHILA    CLOUDY    74  63  68 SE14      30.10F
PHILADELPHIA   CLOUDY    73  63  70 SE9       30.07F
$$



USA.gov is the U.S. government's official web portal to all federal, state and local government web resources and services.